[[{"header":{"parameterUnit":"m.s-1","parameterCategory":1,"la1":30.2991,"la2":30.254,"lo1":-89.0895,"lo2":-89.0444,"dy":0.0017,"dx":0.0017,"nx":28,"ny":28,"refTime":"2025-06-17T03:00:00:Z","depth":0,"parameterNumber":2,"parameterNumberName":"U-component_of_WINDS"},"data":[0,0,0,0,0,0,0,0,0,0,0,0,0,0,0,0,0,0,0,0,0,0,0,0,0,0,0,0,0,0,0,0,0,0,0,0,0,0,0,0,0,0,0,0,0,0,0,0,0,0,0,0,0,0,0,0,0,0,1.957,1.9571,0,1.9584,1.9584,1.9584,1.9532,1.953,1.9529,1.9527,1.9541,1.9543,1.9545,0,0,0,0,0,0,0,0,0,0,0,0,0,1.9498,1.9499,1.957,1.9571,1.9571,1.9584,1.9584,1.9584,1.9532,1.953,1.9528,1.9527,1.954,1.9543,1.9545,0,0,0,0,0,0,0,0,0,0,0,0,0,1.9522,1.95,1.957,1.9546,1.9544,1.9584,1.9584,1.9584,1.9533,1.953,1.9528,1.9526,1.954,1.9542,1.9545,1.9608,0,0,1.9553,1.9555,0,0,0,0,0,0,0,0,1.9521,1.9525,1.955,1.9548,1.9546,1.9554,1.9563,1.9592,1.9533,1.9537,1.9527,1.9525,1.9547,1.9549,1.9557,1.9609,1.9609,1.9554,1.9555,1.9556,1.9557,0,0,0,0,0,0,0,1.9519,1.9524,1.9576,1.955,1.9548,1.9534,1.9535,1.9569,1.9555,1.9537,1.9533,1.9535,1.9546,1.9554,1.9557,1.961,1.9554,1.9556,1.9558,1.9559,1.971,1.9713,0,0,0,0,0,0,1.9521,1.9523,1.9575,1.9576,1.9527,1.9537,1.9538,1.9554,1.9554,1.9552,1.9537,1.9533,1.9551,1.9554,1.9557,1.9628,1.9556,1.9559,1.956,1.9708,1.9711,1.9714,0,0,0,0,0,0,1.9519,1.9526,1.9575,1.9548,1.9554,1.9541,1.9559,1.9555,1.9564,1.9555,1.9552,1.9548,1.9549,1.9553,1.9595,1.9628,1.956,1.9563,1.9705,1.9709,1.9712,1.9772,0,0,0,0,0,0,1.9518,1.9526,1.955,1.9549,1.9555,1.9613,1.9561,1.9557,1.9568,1.9563,1.9565,1.9563,1.9548,1.9591,1.9598,1.963,1.9565,1.9702,1.9707,1.9711,1.9767,1.9778,1.9786,0,0,0,0,0,1.9515,1.9568,1.9552,1.9558,1.9586,1.9615,1.9619,1.96,1.9571,1.9595,1.9589,1.9563,1.9624,1.9596,1.9603,1.9637,1.97,1.9705,1.9711,1.9763,1.9776,1.9786,0,0,0,0,0,0,1.9573,1.9567,1.955,1.9603,1.961,1.9606,1.9636,1.9614,1.963,1.9624,1.96,1.9601,1.9646,1.9646,1.9615,1.9696,1.9657,1.9664,1.9694,1.9706,1.9715,1.9713,1.9567,0,0,0,0,0,1.9592,1.9617,1.9611,1.9659,1.9663,1.9649,1.9661,1.9646,1.9652,1.9655,1.9652,1.9659,1.9679,1.9693,1.9711,1.9768,1.9766,1.9794,1.9804,1.9812,1.9817,1.9844,1.9855,1.9731,1.9731,1.9731,0,0,1.9632,1.9632,1.9649,1.967,1.9674,1.9699,1.9652,1.9681,1.9699,1.9659,1.9698,1.9696,1.9702,1.975,1.9772,1.9752,1.9851,1.9819,1.9825,1.9826,1.9851,1.9862,1.9873,1.9735,1.9734,1.9734,0,0,1.9716,1.972,1.9758,1.9762,1.9768,1.9758,1.9767,1.9767,1.9763,1.9802,1.9771,1.9792,1.9829,1.9833,1.984,1.9924,1.9899,1.9931,1.9979,2.0005,2.0015,2.0024,2.0051,2.0061,1.9937,1.9937,1.9937,0,1.9765,1.9802,1.9781,1.9812,1.982,1.9785,1.9823,1.9828,1.9839,1.9846,1.9824,1.9866,1.9868,1.9915,1.9935,1.9944,1.9952,1.9929,2.0016,2.0024,2.0031,2.0057,2.0067,1.994,1.994,1.994,1.9939,0,1.9859,1.9885,1.9916,1.9926,1.9939,1.9973,1.9956,1.9972,1.9955,1.9947,1.9985,1.9986,2.0002,2.0013,1.9998,2.0058,2.0045,2.002,1.9979,2.0047,2.007,2.008,1.9945,1.9944,1.9943,1.9942,0,0,1.9981,1.9978,1.9989,1.9992,1.9994,2.0013,2.0045,2.0061,2.0073,2.0082,2.0106,2.0137,2.0113,2.0121,2.0106,2.0129,2.0191,2.0101,2.01,2.0115,2.0254,2.0271,2.0282,2.0176,2.0178,2.0179,2.0252,0,2.0061,2.0114,2.0095,2.0149,2.0171,2.0137,2.0165,2.0168,2.0162,2.0179,2.0172,2.0192,2.0161,2.0165,2.0187,2.0179,2.0219,2.0174,2.0197,2.0198,2.0193,2.0295,2.0313,2.0382,2.0262,2.0263,2.0264,0,2.0161,2.0172,2.0228,2.0224,2.0232,2.0257,2.0268,2.0286,2.0289,2.0282,2.029,2.027,2.0299,2.026,2.0299,2.0269,2.0278,2.0276,2.0278,2.0277,2.0233,2.0294,2.0404,2.0413,2.0279,2.0278,2.0277,0,2.024,2.0269,2.0305,2.0309,2.0306,2.0324,2.0324,2.0324,2.0334,2.0344,2.0349,2.0363,2.037,2.0381,2.0364,2.0338,2.0405,2.0365,2.0398,2.0398,2.0412,2.0411,2.0522,2.0422,2.0422,2.0422,2.0422,0,2.033,2.0364,2.034,2.0362,2.0399,2.0377,2.0415,2.0411,2.0411,2.0431,2.0404,2.0423,2.04,2.0417,2.0405,2.0437,2.0441,2.0435,2.0431,2.0436,2.0437,2.0439,2.0433,2.0424,2.0424,2.0423,2.0423,0,2.0423,2.0409,2.0445,2.0438,2.0437,2.0465,2.0459,2.0478,2.0469,2.0495,2.0499,2.0485,2.0503,2.0488,2.0506,2.0497,2.054,2.053,2.0538,2.0534,2.0567,2.0563,2.0681,2.0695,2.059,2.0591,2.0591,0,2.048,2.0505,2.0501,2.0511,2.0512,2.0531,2.0539,2.0519,2.0529,2.0533,2.0552,2.0567,2.0578,2.0609,2.06,2.0613,2.0602,2.0642,2.0603,2.0607,2.0598,2.0596,2.0597,2.0649,2.0651,2.0652,2.0652,0,2.0581,2.0572,2.0585,2.0596,2.0607,2.0615,2.062,2.0631,2.0609,2.0622,2.064,2.0648,2.0666,2.0681,2.0691,2.069,2.0667,2.0665,2.0673,2.0677,2.0679,2.0675,2.0556,2.0662,2.0661,2.066,2.066,2.0659,2.0655,2.0675,2.0674,2.0689,2.0691,2.0696,2.0713,2.0705,2.072,2.0731,2.0719,2.0739,2.074,2.075,2.0752,2.0767,2.075,2.0762,2.0765,2.0767,2.0771,2.0679,2.077,2.0769,2.0769,2.0769,2.0769,0,2.0752,2.0749,2.0764,2.0771,2.0783,2.076,2.0765,2.0776,2.0794,2.0796,2.0807,2.0826,2.084,2.0832,2.0844,2.0858,2.0847,2.0861,2.0859,2.0858,2.0787,2.0777,2.0869,2.0869,2.0869,2.0869,2.0869,2.0869,2.0803,2.0834,2.0825,2.0856,2.0853,2.0872,2.0876,2.088,2.0881,2.0903,2.0914,2.0909,2.0906,2.0917,2.0929,2.0926,2.093,2.0947,2.0941,2.0874,2.0864,2.0854,2.0845,2.0949,2.0949,2.101,2.1011,2.1011]},{"header":{"parameterUnit":"m.s-1","parameterCategory":1,"la1":30.2991,"la2":30.254,"lo1":-89.0895,"lo2":-89.0444,"dy":0.0017,"dx":0.0017,"nx":28,"ny":28,"refTime":"2025-06-17T03:00:00:Z","depth":0,"parameterNumber":3,"parameterNumberName":"V-component_of_WINDS"},"data":[0,0,0,0,0,0,0,0,0,0,0,0,0,0,0,0,0,0,0,0,0,0,0,0,0,0,0,0,0,0,0,0,0,0,0,0,0,0,0,0,0,0,0,0,0,0,0,0,0,0,0,0,0,0,0,0,0,0,5.0984,5.0986,0,5.1125,5.1126,5.1128,5.1084,5.1081,5.1078,5.1076,5.1213,5.1219,5.1226,0,0,0,0,0,0,0,0,0,0,0,0,0,5.067,5.0676,5.0984,5.0986,5.0988,5.1124,5.1126,5.1128,5.1085,5.1081,5.1078,5.1074,5.1211,5.1219,5.1226,0,0,0,0,0,0,0,0,0,0,0,0,0,5.0808,5.0678,5.0984,5.0983,5.0984,5.1124,5.1126,5.1129,5.1086,5.1081,5.1077,5.1073,5.1209,5.1218,5.1227,5.1375,0,0,5.1257,5.1261,0,0,0,0,0,0,0,0,5.08,5.0819,5.0981,5.0983,5.0985,5.1083,5.1066,5.1211,5.1087,5.1047,5.1075,5.107,5.1173,5.1185,5.1221,5.1382,5.1388,5.1258,5.1264,5.1268,5.127,0,0,0,0,0,0,0,5.0791,5.0813,5.1039,5.0983,5.0986,5.0972,5.0987,5.1093,5.1133,5.105,5.1047,5.1065,5.1173,5.1212,5.1224,5.139,5.1257,5.1266,5.1272,5.1276,5.1674,5.1679,0,0,0,0,0,0,5.0781,5.0805,5.1035,5.1044,5.088,5.0982,5.0998,5.1055,5.1131,5.1139,5.1068,5.1062,5.1198,5.1213,5.1229,5.1404,5.1268,5.1277,5.1282,5.167,5.1676,5.1681,0,0,0,0,0,0,5.0774,5.0802,5.1029,5.0924,5.0952,5.0992,5.1057,5.1061,5.1099,5.1146,5.1151,5.1101,5.1195,5.1215,5.1339,5.1409,5.1281,5.129,5.1664,5.1671,5.1678,5.1759,0,0,0,0,0,0,5.0766,5.08,5.0859,5.0926,5.0958,5.114,5.1061,5.1066,5.1117,5.111,5.1178,5.1185,5.1193,5.1325,5.1348,5.1419,5.1297,5.1658,5.1667,5.1676,5.175,5.1768,5.1783,0,0,0,0,0,5.0754,5.0875,5.0862,5.089,5.1033,5.1144,5.1162,5.1171,5.1123,5.1181,5.1209,5.1183,5.1397,5.1338,5.1364,5.1439,5.1653,5.1665,5.1675,5.1742,5.1764,5.1783,0,0,0,0,0,0,5.0814,5.0884,5.087,5.1017,5.1075,5.1137,5.121,5.1194,5.1266,5.1256,5.1261,5.1277,5.1403,5.1433,5.1366,5.1584,5.1518,5.1534,5.156,5.1581,5.1597,5.1587,5.1305,0,0,0,0,0,5.0844,5.0932,5.0987,5.1111,5.1141,5.1171,5.122,5.1221,5.1281,5.1304,5.1343,5.14,5.1479,5.1532,5.1608,5.1754,5.1766,5.1818,5.1835,5.1848,5.1862,5.1938,5.1961,5.1716,5.1716,5.1716,0,0,5.0907,5.0956,5.1011,5.1124,5.1169,5.1256,5.1192,5.1288,5.1351,5.1318,5.1438,5.1467,5.1531,5.1665,5.1727,5.1695,5.1932,5.1862,5.1872,5.1879,5.1951,5.1974,5.1995,5.1724,5.1722,5.1721,0,0,5.1067,5.1114,5.1221,5.1268,5.1337,5.1356,5.1381,5.1446,5.1464,5.1585,5.1561,5.1635,5.1774,5.1819,5.186,5.2034,5.2011,5.2058,5.2144,5.2218,5.2237,5.2254,5.2314,5.2335,5.2072,5.2072,5.2073,0,5.1136,5.1269,5.1277,5.1375,5.1424,5.1399,5.1505,5.1549,5.164,5.1672,5.1636,5.1807,5.1848,5.1992,5.2034,5.2069,5.2095,5.205,5.2234,5.2251,5.2267,5.2324,5.2347,5.2078,5.2077,5.2076,5.2076,0,5.1349,5.1442,5.1519,5.1608,5.1665,5.1767,5.1787,5.1844,5.1839,5.1861,5.1981,5.2029,5.2114,5.2148,5.2144,5.229,5.2267,5.2233,5.2166,5.2296,5.2349,5.2371,5.2085,5.2083,5.2082,5.208,0,0,5.1551,5.1642,5.167,5.1709,5.1783,5.1853,5.1951,5.2035,5.2082,5.2145,5.2225,5.2342,5.2309,5.2356,5.2357,5.2422,5.2553,5.2379,5.238,5.2407,5.2712,5.2737,5.2762,5.2538,5.2542,5.2545,5.2706,0,5.1715,5.1891,5.19,5.2058,5.2141,5.2118,5.2203,5.2256,5.2278,5.2349,5.2372,5.2454,5.2406,5.2434,5.2497,5.2523,5.2613,5.2512,5.261,5.2613,5.2594,5.279,5.2817,5.2967,5.2727,5.2731,5.2733,0,5.1931,5.2001,5.2168,5.2227,5.2262,5.2339,5.2415,5.2485,5.2542,5.2553,5.2605,5.2595,5.2692,5.2623,5.2755,5.2686,5.2726,5.2744,5.275,5.2758,5.268,5.2802,5.3015,5.3037,5.2766,5.2764,5.2761,0,5.2059,5.2194,5.2311,5.2345,5.2418,5.2472,5.2504,5.2558,5.2607,5.2672,5.2703,5.2778,5.2819,5.2876,5.2886,5.2835,5.3017,5.2949,5.3026,5.3026,5.3065,5.3062,5.3285,5.3094,5.3093,5.3093,5.3092,0,5.224,5.2343,5.2369,5.2441,5.2553,5.2561,5.2671,5.2699,5.2747,5.2821,5.2805,5.2874,5.2884,5.2954,5.2962,5.3068,5.3087,5.3097,5.3097,5.3098,5.3096,5.3123,5.3112,5.3099,5.3097,5.3096,5.3095,0,5.2402,5.2424,5.2549,5.2608,5.2624,5.2705,5.2753,5.282,5.2839,5.2933,5.2955,5.2985,5.3067,5.3083,5.318,5.3185,5.3311,5.3302,5.3292,5.329,5.3366,5.3358,5.3613,5.3646,5.3434,5.3436,5.3438,0,5.2516,5.2594,5.2661,5.271,5.2745,5.2825,5.2875,5.2884,5.2935,5.3005,5.3063,5.3144,5.3209,5.3341,5.3369,5.3442,5.3433,5.3518,5.3444,5.3441,5.3432,5.3427,5.3433,5.3531,5.3534,5.3536,5.3537,0,5.2715,5.2721,5.2795,5.2871,5.2931,5.2992,5.3049,5.3089,5.3105,5.3164,5.3248,5.3299,5.3397,5.3476,5.3549,5.3579,5.356,5.356,5.3581,5.3582,5.3572,5.3576,5.3328,5.3554,5.3552,5.3551,5.355,5.355,5.2855,5.2922,5.2979,5.306,5.3104,5.3157,5.3222,5.3249,5.3321,5.3403,5.3403,5.3495,5.3546,5.3642,5.3677,5.3746,5.3719,5.375,5.3758,5.3765,5.3771,5.3562,5.3759,5.3759,5.3759,5.3758,5.3758,0,5.305,5.3085,5.316,5.3241,5.3304,5.3282,5.3343,5.3397,5.3478,5.3529,5.3594,5.3689,5.3765,5.3799,5.3873,5.3922,5.3914,5.394,5.3936,5.3943,5.3793,5.3766,5.3945,5.3945,5.3945,5.3945,5.3945,5.3945,5.316,5.3272,5.3285,5.3416,5.345,5.3541,5.3577,5.3625,5.3665,5.3773,5.3837,5.3859,5.3902,5.3979,5.4046,5.4054,5.408,5.411,5.4114,5.3973,5.3954,5.3935,5.391,5.4117,5.4117,5.4257,5.4259,5.426]}]]